Peru, IN

4:18 PM EDT on March 23, 2017 (GMT -0400)
Grissom Air Reserve Base

Weather History for KGUS - July, 2013

Change the Weather History Date:

Wednesday, July 10, 2013

  Actual Average Record
Temperature  
Mean Temperature 75 °F -  
Max Temperature 83 °F 81 °F 89 °F (2001)
Min Temperature 66 °F 64 °F 55 °F (1996)
Cooling Degree Days 10    
Growing Degree Days 25 (Base 50)    
Moisture  
Dew Point 72 °F    
Average Humidity 88    
Maximum Humidity 100    
Minimum Humidity 73    
Precipitation  
Precipitation 0.85 in - - ()
Sea Level Pressure  
Sea Level Pressure 29.91 in    
Wind  
Wind Speed 14 mph (West)    
Max Wind Speed 45 mph    
Max Gust Speed 56 mph    
Visibility 8 miles    
Events Fog , Rain , Thunderstorm    
Averages and records for this station are not official NWS values.
T = Trace of Precipitation, MM = Missing Value Source: NWS Daily Summary

Daily Weather History Graph

Daily Weather History Graph

Search for Another Location

Airport or City:

Trip Planner

Search our weather history database for the weather conditions in past years. The results will help you decide how hot, cold, wet, or windy it might be!

Date:

Astronomy

Jul. 10, 2013 Rise Set
Actual Time 6:22 AM EDT 9:16 PM EDT
Civil Twilight 5:50 AM EDT 9:49 PM EDT
Nautical Twilight 5:08 AM EDT 10:30 PM EDT
Astronomical Twilight 4:21 AM EDT 11:18 PM EDT
Moon 8:44 AM EDT (7/10) 10:25 PM EDT (7/10)
Length of Visible Light 15h 59m
Length of Day
14h 53m
Waxing Crescent, 5% of the Moon is Illuminated
Jul 10
Waxing Crescent
Jul 15
First Quarter
Jul 22
Full
Jul 29
Last Quarter
Aug 6
New

Hourly Weather History & Observations

Time (EDT) Temp. Heat Index Dew Point Humidity Pressure Visibility Wind Dir Wind Speed Gust Speed Precip Events Conditions
12:58 AM 77.9 °F - 73.4 °F 86% 29.94 in 10.0 mi SW 10.4 mph - N/A   Scattered Clouds
1:58 AM 77.0 °F - 73.2 °F 88% 29.93 in 10.0 mi SW 9.2 mph - N/A   Clear
2:58 AM 75.9 °F - 73.2 °F 91% 29.92 in 10.0 mi SW 9.2 mph - N/A   Clear
3:58 AM 75.9 °F - 73.4 °F 92% 29.91 in 10.0 mi SSW 9.2 mph - N/A   Clear
4:58 AM 76.1 °F - 73.6 °F 92% 29.90 in 10.0 mi SW 10.4 mph - N/A   Partly Cloudy
5:36 AM 75.2 °F - 73.4 °F 94% 29.91 in 10.0 mi SW 9.2 mph - N/A Rain Light Rain
5:41 AM 75.2 °F - 73.4 °F 94% 29.91 in 6.0 mi SW 8.1 mph - N/A Rain Rain
5:51 AM 75.2 °F - 73.4 °F 94% 29.91 in 10.0 mi SSW 6.9 mph - N/A   Light Drizzle
5:52 AM 75.2 °F - 73.4 °F 94% 29.91 in 10.0 mi SW 8.1 mph - N/A   Scattered Clouds
5:58 AM 74.8 °F - 73.8 °F 96% 29.90 in 10.0 mi SW 8.1 mph - 0.02 in   Partly Cloudy
6:58 AM 75.2 °F - 73.9 °F 96% 29.89 in 10.0 mi SW 11.5 mph - N/A   Clear
7:58 AM 77.2 °F - 74.8 °F 92% 29.87 in 10.0 mi SW 11.5 mph - N/A   Clear
8:58 AM 79.7 °F - 76.1 °F 89% 29.88 in 10.0 mi SW 11.5 mph - N/A   Partly Cloudy
9:58 AM 81.9 °F 89.5 °F 76.6 °F 84% 29.88 in 10.0 mi WSW 11.5 mph - N/A   Partly Cloudy
10:30 AM 82.4 °F 90.9 °F 77.0 °F 84% 29.86 in 7.0 mi WSW 13.8 mph - N/A Thunderstorm Mostly Cloudy
10:56 AM 82.4 °F 90.9 °F 77.2 °F 84% 29.85 in 10.0 mi WSW 8.1 mph - N/A Thunderstorm Overcast
11:08 AM 82.4 °F 90.9 °F 77.0 °F 84% 29.86 in 10.0 mi WSW 6.9 mph - N/A   Overcast
11:56 AM 82.4 °F 90.9 °F 77.0 °F 84% 29.88 in 10.0 mi West 8.1 mph - N/A   Partly Cloudy
12:54 PM - - - N/A% 29.88 in 10.0 mi WSW 15.0 mph - N/A Thunderstorm Overcast
12:56 PM 80.6 °F 87.1 °F 77.0 °F 89% 29.88 in 10.0 mi WSW 13.8 mph - N/A Thunderstorm Scattered Clouds
1:10 PM 80.6 °F 87.1 °F 77.0 °F 89% 29.89 in 10.0 mi SW 15.0 mph - N/A Rain , Thunderstorm Light Thunderstorms and Rain
1:12 PM 80.6 °F 87.1 °F 77.0 °F 89% 29.88 in 10.0 mi SW 16.1 mph 21.9 mph N/A Rain , Thunderstorm Light Thunderstorms and Rain
1:22 PM 78.8 °F - 77.0 °F 94% 29.92 in 6.0 mi WSW 25.3 mph 29.9 mph N/A Rain , Thunderstorm Light Thunderstorms and Rain
1:25 PM - - - N/A% - 0.5 mi West 38.0 mph 50.6 mph N/A Rain , Thunderstorm Heavy Thunderstorms and Rain
1:26 PM 77.0 °F - 73.4 °F 89% 29.93 in 3.0 mi WSW 38.0 mph 50.6 mph N/A Rain , Thunderstorm Thunderstorms and Rain
1:29 PM 75.2 °F - 71.6 °F 89% 29.95 in 1.2 mi West 42.6 mph 51.8 mph N/A Rain , Thunderstorm Thunderstorms and Rain
1:31 PM 73.4 °F - 69.8 °F 88% 29.98 in 0.5 mi West 44.9 mph 52.9 mph N/A Fog , Rain , Thunderstorm Thunderstorms and Rain
1:35 PM 71.6 °F - 69.8 °F 94% 30.01 in 0.2 mi West 38.0 mph 55.2 mph N/A Fog , Rain , Thunderstorm Heavy Thunderstorms and Rain
1:40 PM 69.8 °F - 69.8 °F 100% 30.00 in 0.2 mi West 36.8 mph 55.2 mph N/A Fog , Rain , Thunderstorm Heavy Thunderstorms and Rain
1:45 PM - - - N/A% 29.98 in 0.8 mi West 41.4 mph 56.4 mph N/A Rain , Thunderstorm Heavy Thunderstorms and Rain
1:55 PM 68.4 °F - 67.6 °F 98% 29.99 in 4.0 mi WSW 25.3 mph 48.3 mph 0.70 in Rain , Thunderstorm Thunderstorms and Rain
2:17 PM 68.0 °F - 68.0 °F 100% 29.99 in 6.0 mi WSW 23.0 mph 28.8 mph N/A Rain , Thunderstorm Light Thunderstorms and Rain
2:55 PM 69.3 °F - 69.3 °F 100% 29.96 in 7.0 mi West 11.5 mph - 0.13 in Rain Light Rain
3:11 PM 71.6 °F - 71.6 °F 100% 29.95 in 10.0 mi West 9.2 mph - N/A   Mostly Cloudy
3:58 PM 73.6 °F - 73.6 °F 100% 29.88 in 10.0 mi WNW 12.7 mph - 0.00 in   Clear
4:58 PM 79.3 °F - 72.9 °F 80% 29.83 in 10.0 mi NW 16.1 mph - N/A   Clear
5:58 PM 79.7 °F - 73.2 °F 80% 29.86 in 10.0 mi NW 12.7 mph - N/A   Scattered Clouds
6:03 PM 80.6 °F 85.4 °F 73.4 °F 79% 29.86 in 10.0 mi NNW 15.0 mph - N/A   Mostly Cloudy
6:18 PM 78.8 °F - 73.4 °F 83% 29.86 in 10.0 mi NNW 12.7 mph - N/A   Mostly Cloudy
6:23 PM 78.8 °F - 73.4 °F 83% 29.86 in 10.0 mi NNW 12.7 mph 20.7 mph N/A   Mostly Cloudy
6:28 PM 77.0 °F - 71.6 °F 83% 29.86 in 10.0 mi NNW 11.5 mph 20.7 mph N/A   Overcast
6:58 PM 77.2 °F - 72.5 °F 85% 29.86 in 10.0 mi North 9.2 mph - N/A   Mostly Cloudy
7:13 PM 77.0 °F - 71.6 °F 83% 29.88 in 10.0 mi North 11.5 mph - N/A   Mostly Cloudy
7:18 PM 77.0 °F - 71.6 °F 83% 29.89 in 10.0 mi North 11.5 mph - N/A   Mostly Cloudy
7:28 PM 77.0 °F - 69.8 °F 78% 29.89 in 10.0 mi North 10.4 mph - N/A   Mostly Cloudy
7:58 PM 77.0 °F - 68.2 °F 74% 29.91 in 10.0 mi North 10.4 mph - N/A   Partly Cloudy
8:58 PM 73.4 °F - 64.8 °F 74% 29.94 in 10.0 mi NNE 5.8 mph - N/A   Partly Cloudy
9:58 PM 70.9 °F - 61.7 °F 73% 29.96 in 10.0 mi North 5.8 mph - N/A   Mostly Cloudy
10:58 PM 68.0 °F - 62.1 °F 81% 29.99 in 10.0 mi NNE 4.6 mph - N/A   Mostly Cloudy
11:58 PM 66.9 °F - 60.1 °F 79% 30.00 in 10.0 mi NNE 3.5 mph - N/A   Clear